timestamp,surface_pressure_avg,surface_temp_avg,battery_voltage,lat,long
2022-04-29 00:09:01+00:00,334.5162,4.59,11.93,47.84626,-54.09684
2022-04-29 00:19:00+00:00,328.5063,4.6,11.93,47.84626,-54.09684
2022-04-29 00:29:00+00:00,321.528,4.66,11.93,47.84626,-54.09684
2022-04-29 00:39:00+00:00,312.098,4.7,11.93,47.84626,-54.09684
2022-04-29 00:49:00+00:00,305.6063,4.7,11.93,47.84626,-54.09684
2022-04-29 00:59:00+00:00,299.8381,4.75,11.93,47.84626,-54.09684
2022-04-29 01:09:00+00:00,291.8647,4.8,11.93,47.84626,-54.09684
2022-04-29 01:19:00+00:00,282.4531,4.77,11.93,47.84626,-54.09684
2022-04-29 01:29:00+00:00,277.2631,4.76,11.93,47.84626,-54.09684
2022-04-29 01:39:00+00:00,269.6064,4.8,11.93,47.84626,-54.09684
2022-04-29 01:49:00+00:00,258.5581,4.8,11.93,47.84626,-54.09684
2022-04-29 01:59:00+00:00,249.8631,4.8,11.93,47.84626,-54.09684
2022-04-29 02:09:00+00:00,243.5997,4.8,11.93,47.84626,-54.09684
2022-04-29 02:19:00+00:00,233.5215,4.8,11.93,47.84626,-54.09684
2022-04-29 02:29:00+00:00,223.0381,4.8,11.93,47.84626,-54.09684
2022-04-29 02:39:00+00:00,218.8097,4.83,11.93,47.84626,-54.09684
2022-04-29 02:49:00+00:00,214.8814,4.9,11.93,47.84626,-54.09684
2022-04-29 02:59:00+00:00,207.9648,4.97,11.93,47.84626,-54.09684
2022-04-29 03:09:00+00:00,202.3664,5.0,11.93,47.84626,-54.09684
2022-04-29 03:19:00+00:00,199.5798,5.1,11.93,47.84626,-54.09684
2022-04-29 03:29:00+00:00,196.3115,5.07,11.93,47.84626,-54.09684
2022-04-29 03:39:00+00:00,192.7515,5.0,11.93,47.84626,-54.09684
2022-04-29 03:49:00+00:00,190.1147,5.14,11.93,47.84626,-54.09684
2022-04-29 03:59:00+00:00,188.2881,5.1,11.93,47.84626,-54.09684
2022-04-29 04:09:00+00:00,187.9099,5.0,11.93,47.84626,-54.09684
2022-04-29 04:19:01+00:00,186.1031,5.08,11.93,47.84626,-54.09684
2022-04-29 04:29:01+00:00,183.9149,5.12,11.93,47.84626,-54.09684
2022-04-29 04:39:01+00:00,185.8515,5.1,11.93,47.84626,-54.09684
2022-04-29 04:49:01+00:00,189.3699,5.13,11.93,47.84626,-54.09684
2022-04-29 04:59:01+00:00,190.8015,5.3,11.93,47.84626,-54.09684
2022-04-29 05:09:01+00:00,191.9214,5.62,11.93,47.84626,-54.09684
2022-04-29 05:19:00+00:00,195.1097,5.11,11.93,47.84626,-54.09684
2022-04-29 05:29:00+00:00,198.4066,4.8,11.93,47.84626,-54.09684
2022-04-29 05:39:00+00:00,200.1398,4.85,11.93,47.84626,-54.09684
2022-04-29 05:49:00+00:00,203.2364,4.8,11.93,47.84626,-54.09684
2022-04-29 05:59:00+00:00,207.6398,4.8,11.93,47.84626,-54.09684
2022-04-29 06:09:00+00:00,210.518,4.78,11.93,47.84626,-54.09684
2022-04-29 06:19:01+00:00,214.3381,4.7,11.93,47.84626,-54.09684
2022-04-29 06:29:01+00:00,220.2531,4.7,11.93,47.84626,-54.09684
2022-04-29 06:39:01+00:00,223.133,4.7,11.93,47.84626,-54.09684
2022-04-29 06:49:01+00:00,225.1064,4.76,11.93,47.84626,-54.09684
2022-04-29 06:59:01+00:00,230.2614,4.85,11.93,47.84626,-54.09684
2022-04-29 07:09:01+00:00,237.7431,4.98,11.93,47.84626,-54.09684
2022-04-29 07:19:00+00:00,241.4231,5.01,11.93,47.84626,-54.09684
2022-04-29 07:29:00+00:00,244.4831,5.05,11.93,47.84626,-54.09684
2022-04-29 07:39:00+00:00,252.2347,4.5,11.93,47.84626,-54.09684
2022-04-29 07:49:00+00:00,259.4981,4.5,11.93,47.84626,-54.09684
2022-04-29 07:59:00+00:00,262.9515,4.5,11.93,47.84626,-54.09684
2022-04-29 08:09:00+00:00,266.0931,4.5,11.93,47.84626,-54.09684
2022-04-29 08:19:00+00:00,275.623,4.6,11.93,47.84626,-54.09684
2022-04-29 08:29:00+00:00,282.5881,4.64,11.93,47.84626,-54.09684
2022-04-29 08:39:00+00:00,287.3713,4.7,11.93,47.84626,-54.09684
2022-04-29 08:49:00+00:00,293.9613,4.7,11.93,47.84626,-54.09684
2022-04-29 08:59:00+00:00,303.9348,4.6,11.93,47.84626,-54.09684
2022-04-29 09:09:00+00:00,312.1447,4.6,11.93,47.84626,-54.09684
2022-04-29 09:19:00+00:00,319.428,4.5,11.93,47.84626,-54.09684
2022-04-29 09:29:00+00:00,327.2847,4.5,11.93,47.84626,-54.09684
2022-04-29 09:39:00+00:00,334.4097,4.49,11.93,47.84626,-54.09684
2022-04-29 09:49:00+00:00,338.4897,4.5,11.93,47.84626,-54.09684
2022-04-29 09:59:00+00:00,341.7114,4.49,11.93,47.84626,-54.09684
2022-04-29 10:09:00+00:00,344.7196,4.3,11.93,47.84626,-54.09684
2022-04-29 10:19:00+00:00,347.7213,4.3,11.93,47.84626,-54.09684
2022-04-29 10:29:00+00:00,352.1446,4.2,11.93,47.84626,-54.09684
2022-04-29 10:39:00+00:00,354.3413,4.1,11.93,47.84626,-54.09684
2022-04-29 10:49:00+00:00,353.8979,4.0,11.93,47.84626,-54.09684
2022-04-29 10:59:00+00:00,354.1562,4.0,11.93,47.84626,-54.09684
2022-04-29 11:09:00+00:00,357.5614,4.08,11.93,47.84626,-54.09684
2022-04-29 11:19:00+00:00,355.7114,4.1,11.93,47.84626,-54.09684
2022-04-29 11:29:00+00:00,351.0613,4.1,11.93,47.84626,-54.09684
2022-04-29 11:39:00+00:00,350.0497,4.1,11.93,47.84626,-54.09684
2022-04-29 11:49:00+00:00,347.3896,4.2,11.93,47.84626,-54.09684
2022-04-29 11:59:00+00:00,342.2928,5.08,11.93,47.84626,-54.09684
2022-04-29 12:09:00+00:00,338.468,4.93,11.93,47.84626,-54.09684
2022-04-29 12:19:01+00:00,335.668,4.8,11.93,47.84626,-54.09684
2022-04-29 12:29:01+00:00,329.8163,5.14,11.93,47.84626,-54.09684
2022-04-29 12:39:01+00:00,325.2263,4.92,11.93,47.84626,-54.09684
2022-04-29 12:49:01+00:00,322.0298,4.98,11.93,47.84626,-54.09684
2022-04-29 12:59:01+00:00,317.853,5.1,11.93,47.84626,-54.09684
2022-04-29 13:09:01+00:00,310.4996,5.29,11.93,47.84626,-54.09684
2022-04-29 13:19:01+00:00,305.4313,5.4,11.93,47.84626,-54.09684
2022-04-29 13:29:01+00:00,299.2881,5.55,11.93,47.84626,-54.09684
2022-04-29 13:39:01+00:00,289.0364,5.6,11.93,47.84626,-54.09684
2022-04-29 13:49:01+00:00,279.993,5.47,11.93,47.84626,-54.09684
2022-04-29 13:59:01+00:00,273.743,5.31,11.93,47.84626,-54.09684
2022-04-29 14:09:01+00:00,264.1064,5.39,11.93,47.84626,-54.09684
2022-04-29 14:19:00+00:00,253.5914,5.2,11.93,47.84626,-54.09684
2022-04-29 14:29:00+00:00,247.6298,5.0,11.93,47.84626,-54.09684
2022-04-29 14:39:00+00:00,239.5931,5.1,11.93,47.84626,-54.09684
2022-04-29 14:49:00+00:00,228.1598,5.1,11.93,47.84626,-54.09684
2022-04-29 14:59:00+00:00,221.2281,5.0,11.93,47.84626,-54.09684
2022-04-29 15:09:00+00:00,217.6714,4.99,11.93,47.84626,-54.09684
2022-04-29 15:19:01+00:00,212.7231,4.91,11.93,47.84626,-54.09684
2022-04-29 15:29:01+00:00,206.8448,5.0,11.93,47.84626,-54.09684
2022-04-29 15:39:01+00:00,203.8948,4.9,11.93,47.84626,-54.09684
2022-04-29 15:49:01+00:00,201.1497,4.9,11.93,47.84626,-54.09684
2022-04-29 15:59:01+00:00,198.2831,5.01,11.93,47.84626,-54.09684
2022-04-29 16:09:01+00:00,196.5014,5.43,11.93,47.84626,-54.09684
2022-04-29 16:19:00+00:00,196.1164,5.7,11.93,47.84626,-54.09684
2022-04-29 16:29:00+00:00,195.5531,5.72,11.93,47.84626,-54.09684
2022-04-29 16:39:00+00:00,192.4998,5.98,11.93,47.84626,-54.09684
2022-04-29 16:49:00+00:00,192.9065,6.1,11.93,47.84626,-54.09684
2022-04-29 16:59:00+00:00,199.6498,5.2,11.93,47.84626,-54.09684
2022-04-29 17:09:00+00:00,201.6231,4.6,11.93,47.84626,-54.09684
2022-04-29 17:19:01+00:00,199.4949,4.6,11.93,47.84626,-54.09684
2022-04-29 17:29:01+00:00,200.9764,4.59,11.93,47.84626,-54.09684
2022-04-29 17:39:01+00:00,205.3564,4.58,11.93,47.84626,-54.09684
2022-04-29 17:49:01+00:00,205.8598,4.6,11.93,47.84626,-54.09684
2022-04-29 17:59:01+00:00,209.3565,4.6,11.93,47.84626,-54.09684
2022-04-29 18:09:01+00:00,213.1815,4.57,11.93,47.84626,-54.09684
2022-04-29 18:19:00+00:00,213.2731,4.56,11.93,47.84626,-54.09684
2022-04-29 18:29:00+00:00,217.0948,4.6,11.93,47.84626,-54.09684
2022-04-29 18:39:00+00:00,224.1048,4.6,11.93,47.84626,-54.09684
2022-04-29 18:49:00+00:00,228.9964,4.6,11.93,47.84626,-54.09684
2022-04-29 18:59:00+00:00,232.6998,4.6,11.93,47.84626,-54.09684
2022-04-29 19:09:00+00:00,237.9431,4.6,11.93,47.84626,-54.09684
2022-04-29 19:19:00+00:00,242.4547,4.6,11.93,47.84626,-54.09684
2022-04-29 19:29:00+00:00,247.3681,4.6,11.93,47.84626,-54.09684
2022-04-29 19:39:00+00:00,254.1848,4.5,11.93,47.84626,-54.09684
2022-04-29 19:49:00+00:00,262.2864,4.45,11.93,47.84626,-54.09684
2022-04-29 19:59:00+00:00,266.108,4.4,11.93,47.84626,-54.09684
2022-04-29 20:09:00+00:00,271.6164,4.4,11.93,47.84626,-54.09684
2022-04-29 20:19:00+00:00,279.398,4.3,11.93,47.84626,-54.09684
2022-04-29 20:29:00+00:00,284.4882,4.39,11.93,47.84626,-54.09684
2022-04-29 20:39:00+00:00,284.1629,4.4,11.93,47.84626,-54.09684
2022-04-29 20:49:00+00:00,290.8047,4.4,11.93,47.84626,-54.09684
2022-04-29 20:59:00+00:00,302.053,4.4,11.93,47.84626,-54.09684
2022-04-29 21:09:00+00:00,307.7497,4.4,11.93,47.84626,-54.09684
2022-04-29 21:19:01+00:00,312.0613,4.3,11.93,47.84626,-54.09684
2022-04-29 21:29:01+00:00,322.113,4.1,11.93,47.84626,-54.09684
2022-04-29 21:39:01+00:00,332.0731,3.93,11.93,47.84626,-54.09684
2022-04-29 21:49:01+00:00,335.3013,3.99,11.93,47.84626,-54.09684
2022-04-29 21:59:01+00:00,340.0130000000001,4.0,11.93,47.84626,-54.09684
2022-04-29 22:09:01+00:00,349.7479,4.0,11.93,47.84626,-54.09684
2022-04-29 22:19:01+00:00,353.1612,4.07,11.93,47.84626,-54.09684
2022-04-29 22:29:01+00:00,353.5529,4.13,11.93,47.84626,-54.09684
2022-04-29 22:39:01+00:00,359.7246,4.17,11.93,47.84626,-54.09684
2022-04-29 22:49:01+00:00,366.3995,4.2,11.93,47.84626,-54.09684
2022-04-29 22:59:01+00:00,363.9564,4.2,11.93,47.84626,-54.09684
2022-04-29 23:09:01+00:00,364.2595,4.2,11.93,47.84626,-54.09684
2022-04-29 23:19:00+00:00,368.0246,4.2,11.93,47.84626,-54.09684
2022-04-29 23:29:00+00:00,367.7529,4.2,11.93,47.84626,-54.09684
2022-04-29 23:39:00+00:00,363.5847,4.2,11.93,47.84626,-54.09684
2022-04-29 23:49:00+00:00,361.2244,4.2,11.93,47.84626,-54.09684
2022-04-29 23:59:00+00:00,361.3679,4.2,11.93,47.84626,-54.09684
